Regional Weather Roundup
Issued by NWS

Home | Current Version | Previous Version | Graphics & Text | Print | Product List | Glossary On
Versions: 1 2 3 4 5 6 7 8 9 10 11 12 13 14 15 16 17 18 19 20 21 22 23 24 25 26 27 28 29 30 31 32 33 34 35 36 37 38 39 40 41 42 43 44 45 46 47 48 49 50
481
ASUS44 KLIX 291307
RWRLA
LOUISIANA WEATHER ROUNDUP
NATIONAL WEATHER SERVICE NEW ORLEANS LA
800 AM CDT SUN MAR 29 2015

NOTE: "FAIR" INDICATES FEW OR NO CLOUDS BELOW 12,000 FEET WITH NO
      SIGNIFICANT WEATHER AND/OR OBSTRUCTIONS TO VISIBILITY.
      SKY/WX - SKY CONDITION AND SIGNIFICANT WEATHER.
      TMP - AIR TEMPERATURE.    DP   - DEWPOINT TEMPERATURE.
      RH  - RELATIVE HUMIDITY.  PRES - PRESSURE.
      HX  - HEAT INDEX.         WCI  - WIND CHILL INDEX.

*  THESE STATIONS ARE NOT NWS OR FAA STATIONS AND ARE NOT UNDER
   NWS QUALITY CONTROL.

LAZ040-048-061>063-065-066-069-291400-
SOUTHEAST LOUISIANA

CITY           SKY/WX    TMP DP  RH WIND       PRES   REMARKS
N.O. AUDUBON   NOT AVBL
N.O. INTL ARPT MOSUNNY   60  53  77 E7        30.27R
N.O. LAKEFRONT SUNNY     63  54  72 E14       30.29R
SLIDELL        SUNNY     49  40  71 E5        30.29R
BATON ROUGE    SUNNY     49  44  83 E8        30.27R
BOOTHVILLE     SUNNY     59  55  87 E6        30.29R
BELLE CHASSE   MOSUNNY   59  52  77 E9        30.28R
BOGALUSA*        N/A     47  35  61 E5        30.32R
GALLIANO*      SUNNY     63  61  92 CALM      30.27R
NEW ROADS*     FAIR      51  47  84 E9        30.26R
GONZALES*      FAIR      56  55  98 E3        30.26S
HAMMOND*       PTSUNNY   50  37  62 E5        30.31R
HOUMA*         NOT AVBL
PORT FOURCHON* SUNNY     68  63  83 E8        30.30R

$$

LAZ041-044-053-054-291400-
SOUTHWEST LOUISIANA

CITY           SKY/WX    TMP DP  RH WIND       PRES   REMARKS
LAKE CHARLES   SUNNY     59  58  96 SE5       30.19R
LAFAYETTE      PTSUNNY   58  57  97 VRB3      30.24R FOG
PATTERSON      SUNNY     57  55  94 E5        30.24R
SALT POINT       N/A     60  60 100 SE5       30.23R
NEW IBERIA     SUNNY     60  58  92 SE6       30.24R FOG
CHENAULT AIRPK SUNNY     59  57  94 SE5         N/A

$$

LAZ027-028-291400-
CENTRAL LOUISIANA

CITY           SKY/WX    TMP DP  RH WIND       PRES   REMARKS
FORT POLK      CLOUDY    56  55  98 SE8       30.20R
ALEXANDRIA INT CLOUDY    58  57  97 SE10      30.20R FOG
ALEXANDRIA     CLOUDY    55  53  93 E3        30.23R

$$

LAZ001-002-291400-
NORTHWEST LOUISIANA

CITY           SKY/WX    TMP DP  RH WIND       PRES   REMARKS
SHREVEPORT     CLOUDY    54  47  77 SE7       30.15R
BARKSDALE AFB  CLOUDY    51  44  77 SE5       30.16R
DTN SHREVEPORT CLOUDY    51  43  74 SE6       30.16R

$$

LAZ014-016-291400-
NORTHEAST LOUISIANA

CITY           SKY/WX    TMP DP  RH WIND       PRES   REMARKS
MONROE         CLOUDY    51  41  68 SE5       30.23R
TALLULAH       CLOUDY    47  35  63 SE13      30.27R

$$




USA.gov is the U.S. government's official web portal to all federal, state and local government web resources and services.